[[{"header":{"parameterUnit":"m.s-1","parameterCategory":1,"la1":30.2992,"la2":30.254,"lo1":-89.0895,"lo2":-89.0443,"dy":0.0025,"dx":0.0025,"nx":19,"ny":19,"refTime":"2026-03-17T03:00:00:Z","depth":0,"parameterNumber":2,"parameterNumberName":"U-component_of_WINDS"},"data":[0,0,0,-4.0562,-4.0564,-4.0623,-4.0623,-4.0716,-4.0717,0,0,0,0,0,0,0,0,0,0,0,-4.0557,-4.0558,-4.0562,-4.0564,-4.0623,-4.0623,-4.0716,-4.0717,0,0,0,0,0,0,0,0,0,0,0,-4.0556,-4.0557,-4.0559,-4.0564,-4.0623,-4.0623,-4.0716,-4.0665,0,0,0,0,0,0,0,0,0,0,-4.0605,-4.061,-4.0557,-4.0559,-4.0565,-4.0623,-4.0623,-4.0662,-4.0668,-4.0697,0,-4.0727,0,-4.0724,-4.0724,-4.0725,0,0,0,-4.0555,-4.0606,-4.0611,-4.0559,-4.0565,-4.0623,-4.0594,-4.0665,-4.0672,-4.0705,-4.0728,-4.0731,-4.0725,-4.0725,-4.0726,-4.0926,-4.0927,0,0,-4.0552,-4.0573,-4.0607,-4.0616,-4.0609,-4.0592,-4.0596,-4.0669,-4.0695,-4.0728,-4.0733,-4.0727,-4.0726,-4.0727,-4.0925,-4.0927,0,0,0,-4.0549,-4.0571,-4.0574,-4.0613,-4.0622,-4.0594,-4.0598,-4.0692,-4.0691,-4.0734,-4.0728,-4.0727,-4.0728,-4.0923,-4.0925,-4.1012,0,0,0,-4.0546,-4.0569,-4.0574,-4.0587,-4.0621,-4.0658,-4.062,-4.0686,-4.0693,-4.0727,-4.0727,-4.0729,-4.0922,-4.0924,-4.1006,-4.1049,0,0,0,-4.0549,-4.0569,-4.0582,-4.0588,-4.0614,-4.0656,-4.0659,-4.0687,-4.0691,-4.0725,-4.0729,-4.0921,-4.0924,-4.1001,-4.1041,-4.1107,0,0,0,-4.0557,-4.0658,-4.0584,-4.0694,-4.0614,-4.071,-4.0659,-4.0729,-4.0769,-4.0727,-4.0922,-4.0925,-4.1,-4.1036,-4.1102,-4.1166,-4.1195,0,0,-4.0695,-4.0675,-4.0738,-4.0674,-4.0788,-4.0699,-4.0826,-4.0843,-4.0827,-4.0894,-4.0898,-4.1008,-4.104,-4.1106,-4.1353,-4.1377,0,0,0,-4.0789,-4.0835,-4.0861,-4.09,-4.0916,-4.0932,-4.0928,-4.0934,-4.099,-4.0866,-4.105,-4.1069,-4.1106,-4.1136,-4.1156,-4.1187,-4.094,-4.094,-4.094,-4.1014,-4.0989,-4.1091,-4.1074,-4.1113,-4.1107,-4.1136,-4.1144,-4.1106,-4.1151,-4.117,-4.1323,-4.1359,-4.1373,-4.1406,-4.1203,-4.1203,-4.1203,-4.1204,-4.1213,-4.1273,-4.1223,-4.1304,-4.1277,-4.1345,-4.1344,-4.1315,-4.1374,-4.1306,-4.1338,-4.1265,-4.14,-4.1426,-4.121,-4.1209,-4.1208,-4.1208,-4.1207,-4.1356,-4.1381,-4.1388,-4.1443,-4.1488,-4.1466,-4.1526,-4.1499,-4.1474,-4.1506,-4.1523,-4.1521,-4.1516,-4.1516,-4.1517,-4.1517,-4.1518,-4.1518,-4.1519,-4.1501,-4.1506,-4.156,-4.1586,-4.1608,-4.1634,-4.1631,-4.1651,-4.1667,-4.1643,-4.1643,-4.1601,-4.1418,-4.1372,-4.1527,-4.1525,-4.1524,-4.1523,-4.1523,-4.171,-4.1659,-4.1742,-4.1764,-4.1793,-4.1839,-4.1805,-4.185,-4.1864,-4.1894,-4.1846,-4.1715,-4.1692,-4.1676,-4.1637,-4.1852,-4.1852,-4.1852,-4.1852,-4.183,-4.1816,-4.1895,-4.1932,-4.1966,-4.1944,-4.2038,-4.2037,-4.2027,-4.2034,-4.1999,-4.1946,-4.1932,-4.1917,-4.1896,-4.1859,-4.2125,-4.2125,-4.2126,-4.1956,-4.1945,-4.203,-4.2021,-4.2042,-4.206,-4.2147,-4.2192,-4.217,-4.2136,-4.2038,-4.2027,-4.1941,-4.1915,-4.1876,-4.1844,-4.1776,0,0]},{"header":{"parameterUnit":"m.s-1","parameterCategory":1,"la1":30.2992,"la2":30.254,"lo1":-89.0895,"lo2":-89.0443,"dy":0.0025,"dx":0.0025,"nx":19,"ny":19,"refTime":"2026-03-17T03:00:00:Z","depth":0,"parameterNumber":3,"parameterNumberName":"V-component_of_WINDS"},"data":[0,0,0,-1.6554,-1.6554,-1.6545,-1.6545,-1.654,-1.654,0,0,0,0,0,0,0,0,0,0,0,-1.6561,-1.6562,-1.6554,-1.6554,-1.6545,-1.6545,-1.654,-1.654,0,0,0,0,0,0,0,0,0,0,0,-1.6561,-1.6562,-1.6562,-1.6554,-1.6545,-1.6545,-1.654,-1.6544,0,0,0,0,0,0,0,0,0,0,-1.6552,-1.6564,-1.6562,-1.6562,-1.6554,-1.6545,-1.6545,-1.6545,-1.6544,-1.6548,0,-1.6553,0,-1.6547,-1.6541,-1.6541,0,0,0,-1.655,-1.6565,-1.6557,-1.6562,-1.6554,-1.6545,-1.6548,-1.6544,-1.6544,-1.6547,-1.6553,-1.6552,-1.6547,-1.6541,-1.6541,-1.6575,-1.6575,0,0,-1.655,-1.6563,-1.6558,-1.6558,-1.656,-1.6548,-1.6547,-1.6544,-1.655,-1.6553,-1.6552,-1.6547,-1.6541,-1.6541,-1.6575,-1.6575,0,0,0,-1.6554,-1.6563,-1.6556,-1.6558,-1.6556,-1.6548,-1.6547,-1.6551,-1.6547,-1.6552,-1.6547,-1.6541,-1.6541,-1.6574,-1.6575,-1.6603,0,0,0,-1.6554,-1.6565,-1.6556,-1.6564,-1.6556,-1.6553,-1.6554,-1.6547,-1.6547,-1.6547,-1.6541,-1.6541,-1.6574,-1.6575,-1.6602,-1.6614,0,0,0,-1.656,-1.6566,-1.6567,-1.6565,-1.6561,-1.6553,-1.6549,-1.6547,-1.6544,-1.6541,-1.6541,-1.6574,-1.6575,-1.66,-1.6612,-1.6626,0,0,0,-1.657,-1.6593,-1.6567,-1.659,-1.6561,-1.6571,-1.6549,-1.6556,-1.6557,-1.6541,-1.6574,-1.6575,-1.66,-1.6611,-1.6625,-1.6639,-1.6647,0,0,-1.6605,-1.6597,-1.661,-1.6587,-1.6604,-1.6571,-1.6593,-1.6582,-1.657,-1.6574,-1.6575,-1.6602,-1.6612,-1.6626,-1.6687,-1.6694,0,0,0,-1.6625,-1.6634,-1.6636,-1.6637,-1.663,-1.6624,-1.6609,-1.6604,-1.6607,-1.6575,-1.6611,-1.6617,-1.6624,-1.6631,-1.6636,-1.6641,-1.6579,-1.6579,-1.6579,-1.6692,-1.6676,-1.6695,-1.6677,-1.6679,-1.6663,-1.6662,-1.6653,-1.6637,-1.6646,-1.6646,-1.6686,-1.6694,-1.6698,-1.6703,-1.6654,-1.6654,-1.6654,-1.6654,-1.6741,-1.6751,-1.6728,-1.6737,-1.672,-1.6728,-1.6712,-1.67,-1.6704,-1.6684,-1.669,-1.6669,-1.6705,-1.6709,-1.6656,-1.6656,-1.6655,-1.6655,-1.6655,-1.6782,-1.6784,-1.6779,-1.6778,-1.678,-1.6761,-1.6766,-1.675,-1.6735,-1.6741,-1.6739,-1.6738,-1.6734,-1.6741,-1.6741,-1.6741,-1.6741,-1.6741,-1.6742,-1.6827,-1.682,-1.6826,-1.6819,-1.6817,-1.6813,-1.6796,-1.6793,-1.6786,-1.6774,-1.6774,-1.6756,-1.6712,-1.6701,-1.6744,-1.6743,-1.6743,-1.6743,-1.6743,-1.6881,-1.6866,-1.6875,-1.6873,-1.6863,-1.6865,-1.6844,-1.6841,-1.6836,-1.6839,-1.6819,-1.679,-1.678,-1.6776,-1.6766,-1.6823,-1.6823,-1.6823,-1.6823,-1.6914,-1.6908,-1.6914,-1.6911,-1.6908,-1.689,-1.6899,-1.6886,-1.687,-1.6866,-1.6856,-1.6842,-1.6838,-1.6831,-1.6825,-1.6816,-1.6884,-1.6884,-1.6885,-1.6946,-1.6938,-1.695,-1.6934,-1.6925,-1.6917,-1.6925,-1.6923,-1.6902,-1.6887,-1.6862,-1.686,-1.6837,-1.6831,-1.6815,-1.6807,-1.6789,0,0]}]]